Location: Santa Clara
(37.3540°N, 121.9540°W)
Time: 21:17:36
(UTC-08:00)

Hubble Space Telescope - Visible Passes

Search period start: 17 January 2026 00:00
Search period end: 27 January 2026 00:00
Orbit: 479 x 481 km, 28.5° (Epoch: 17 January)

Date Brightness Start Highest point End Pass type
(mag) Time Alt. Az. Time Alt. Az. Time Alt. Az.
22 Jan 3.0 19:16:48 10° SSW 19:17:59 13° S 19:17:59 13° S visible
23 Jan 2.8 18:46:59 10° SSW 18:48:55 14° SSE 18:49:57 12° SSE visible
24 Jan 2.9 18:17:10 10° SSW 18:19:06 14° SSE 18:21:03 10° SE visible
24 Jan 3.5 19:55:28 10° SW 19:56:01 13° SW 19:56:01 13° SW visible
25 Jan 2.6 19:25:39 10° SW 19:27:56 20° SSW 19:27:56 20° SSW visible
26 Jan 2.4 18:55:49 10° SW 18:58:42 21° S 18:59:51 18° SSE visible
